CAPE
1180 1290 2107 1761 1553 1627 1561 1312 1464 2278 2351 2161 1867 1786 1659 1433 1228 1209 1000 868 1021 532 467 813 1148 878 567 313 343 633 575 701 769 965 1196 1035 935 704 588 835 902 817 943
1076 1002 2105 1742 1296 1409 1661 1507 2077 2084 1895 1884 1887 1750 1690 1425 1399 1047 731 590 614 352 184 267 758 986 693 177 74 146 419 388 467 667 757 699 525 680 619 991 825 640 807
1137 916 971 1869 1774 1556 1353 1477 1932 1970 1985 1837 1719 1442 1112 976 882 757 606 600 652 447 182 65 42 433 303 140 104 77 43 148 163 111 223 326 471 766 872 1118 982 742 575
920 747 914 1867 1529 1409 1224 1451 1405 1493 1436 1543 1435 1098 995 1017 1028 800 744 936 600 453 415 328 120 16 85 86 82 120 83 20 12 30 32 196 226 789 698 579 560 402 388
697 647 966 1441 1323 1263 1306 1249 1271 1004 1027 1177 1207 1343 1268 1117 1141 1259 1120 1064 1148 811 471 440 319 119 0 59 138 102 56 37 40 5 150 192 257 655 636 521 376 267 398
369 454 1025 1526 1239 1394 1520 1341 1307 1131 1160 1222 1378 1325 1166 919 853 911 1044 976 1001 914 660 582 493 345 291 138 80 60 0 5 0 2 140 285 307 554 729 299 569 351 314
192 51 86 1271 1041 984 1173 1321 1307 1190 1164 1204 1204 1152 1065 895 810 718 1003 898 837 859 721 761 782 620 463 363 155 90 41 0 0 0 47 142 251 565 423 429 412 487 652
35 37 0 0 508 840 506 517 787 949 1156 1185 1115 1106 1075 946 817 730 756 752 719 727 790 778 612 648 606 626 492 383 12 0 0 2 0 2 154 487 610 633 740 900 808
0 0 0 0 0 0 19 14 116 134 277 515 606 675 650 589 688 563 614 692 716 635 529 687 724 590 274 489 755 524 24 0 0 2 0 0 31 218 483 720 834 738 746
0 0 0 0 0 0 0 0 0 0 0 0 0 0 0 125 428 692 422 447 702 837 811 715 797 793 709 351 614 571 60 0 0 3 36 175 104 228 210 537 519 773 819
0 0 0 0 0 0 0 0 0 0 0 0 0 0 0 0 40 272 322 292 330 588 847 838 768 714 551 462 314 448 38 0 0 0 11 391 557 634 605 741 1047 735 737
0 0 0 0 0 0 0 0 0 0 0 0 0 0 0 0 0 0 0 33 165 405 545 871 943 643 419 300 246 186 3 0 0 0 108 458 526 568 690 836 1473 1218 976
0 0 0 0 0 0 0 0 0 0 0 0 0 0 0 0 0 0 0 5 6 6 183 465 482 392 297 285 324 259 4 0 0 0 50 290 507 657 671 697 1315 1512 1143
0 0 0 0 0 0 0 0 0 0 0 0 0 0 0 0 0 0 0 0 0 4 0 169 448 361 481 479 422 359 301 0 0 0 0 96 400 640 767 836 839 848 712
0 0 0 0 0 0 0 0 0 0 0 1 0 0 0 0 0 0 0 0 0 0 0 1 14 307 377 331 471 445 324 307 18 0 0 0 51 386 753 705 679 592 246
0 0 0 0 0 0 0 0 0 0 0 3 4 0 0 0 0 0 0 0 0 0 0 0 4 18 241 319 350 402 443 405 358 130 0 0 0 112 472 823 849 861 531
0 0 0 0 0 0 0 0 0 0 0 0 0 0 0 0 0 0 0 0 0 0 0 0 0 34 1 77 348 388 498 441 377 380 298 62 16 2 155 605 872 906 1008
0 0 0 0 0 0 0 0 0 0 0 0 0 0 0 0 0 0 0 0 0 0 0 0 0 1 18 8 0 8 38 131 387 442 450 383 235 107 88 228 824 1129 959
0 0 0 0 0 0 0 0 0 0 0 0 0 0 0 0 0 0 0 0 0 0 0 0 0 0 0 0 12 18 39 67 69 38 220 375 437 317 194 145 123 442 747
0 0 0 0 0 0 0 0 0 0 0 0 0 0 0 0 0 0 0 0 0 0 0 0 0 1 0 3 4 0 0 3 50 19 77 116 206 431 418 253 219 100 220
0 0 0 0 0 0 0 0 0 0 0 0 0 0 0 0 0 0 0 0 0 0 0 0 0 0 0 0 8 3 4 0 0 0 0 0 1 331 553 490 291 219 170
0 0 0 0 0 0 0 0 0 0 0 0 0 0 0 0 0 0 0 0 0 0 0 0 0 0 6 2 18 21 7 0 0 0 0 0 0 75 405 589 546 389 323
0 0 0 0 0 0 0 0 0 0 0 0 0 0 0 0 0 0 0 0 0 0 0 0 0 0 0 0 4 58 43 11 7 0 0 0 0 0 0 396 622 544 470
0 0 0 0 0 0 0 0 0 0 0 0 0 0 0 0 0 0 0 0 0 0 0 0 0 0 0 0 0 9 36 53 36 18 1 15 7 0 0 7 411 476 482
0 0 0 0 0 0 0 0 0 0 0 0 0 0 0 0 0 0 0 0 0 0 0 0 0 0 0 0 0 0 4 23 38 51 18 0 0 0 0 0 10 8 54
0 0 0 0 0 0 0 0 0 0 0 0 0 0 0 0 0 0 0 0 0 0 0 0 0 0 0 0 0 0 6 9 42 41 50 25 3 0 0 0 0 0 0
CIN
-29 -26 -1 -1 -1 -1 -0 -1 -1 -0 -0 -0 -0 -0 -0 -0 -0 -0 -0 -2 -0 -4 -2 -0 -0 -0 -0 -4 -1 -0 -2 -2 -2 -3 -1 -1 -0 -0 -0 -2 -4 -0 -0
-25 -36 -2 -1 -4 -2 -0 -1 -0 -1 -0 -0 -0 -0 -0 -0 -0 -0 -0 -3 -2 -10 -24 -6 -0 -0 -0 -4 -35 -16 -5 -11 -17 -10 -10 -7 -5 -1 -1 -2 -11 -7 -5
-6 -8 -21 -1 -1 -2 -2 -2 -0 -0 -0 -0 -0 -0 -0 -0 -0 -0 -1 -1 -0 -4 -26 -42 -36 -0 -0 -2 -8 -64 -124 -76 -85 -120 -39 -16 -9 -1 -2 -1 -0 -0 -0
-14 -29 -16 -1 -2 -3 -5 -3 -3 -2 -2 -0 -0 -0 -0 -0 -0 -0 -0 -0 -1 -7 -3 -2 -21 -57 -19 -16 -27 -32 -85 -206 -286 -252 -207 -49 -43 -3 -2 -0 -0 -0 -0
-17 -34 -7 -2 -2 -3 -2 -3 -3 -9 -9 -6 -4 -0 -0 -0 -0 -0 -0 -2 -0 -2 -7 -2 -0 -14 -0 -36 -6 -35 -107 -180 -192 -223 -65 -63 -19 -11 -0 -0 -4 -13 -2
-8 -25 -12 -3 -4 -1 -0 -1 -1 -2 -3 -4 -1 -0 -1 -2 -1 -1 -2 -2 -2 -1 -1 -3 -4 -1 -1 -22 -29 -75 -2 -152 -7 -58 -53 -36 -36 -10 -1 -7 -0 -6 -11
-28 -71 -35 -5 -7 -7 -3 -0 -0 -0 -0 -0 -0 -0 -0 -2 -6 -11 -3 -6 -4 -2 -0 -0 -0 -1 -1 -1 -19 -40 -101 -0 -0 -0 -109 -57 -32 -10 -3 -1 -3 -3 -0
-42 -59 -0 -0 -6 -9 -15 -13 -2 -0 -0 -0 -0 -0 -1 -3 -5 -7 -8 -9 -7 -3 -1 -0 -0 -1 -2 -0 -0 -3 -56 -0 -0 -16 -0 -14 -51 -14 -0 -0 -1 -2 -1
-0 -0 -0 -0 -0 -0 -12 -16 -53 -48 -28 -15 -15 -16 -21 -30 -23 -18 -14 -8 -6 -6 -6 -1 -0 -1 -7 -3 -1 -2 -38 -0 -0 -4 -0 -0 -96 -21 -2 -0 -1 -4 -3
-0 -0 -0 -0 -0 -0 -0 -0 -0 -0 -0 -0 -0 -0 -0 -80 -57 -31 -31 -27 -8 -3 -3 -4 -1 -0 -1 -4 -2 -3 -54 -0 -0 -21 -43 -5 -69 -12 -21 -1 -2 -1 -2
-0 -0 -0 -0 -0 -0 -0 -0 -0 -0 -0 -0 -0 -0 -0 -0 -36 -24 -18 -44 -37 -21 -8 -4 -4 -3 -8 -12 -21 -16 -66 -0 -0 -0 -10 -47 -25 -10 -11 -0 -0 -0 -1
-0 -0 -0 -0 -0 -0 -0 -0 -0 -0 -0 -0 -0 -0 -0 -0 -0 -0 -0 -36 -62 -43 -32 -18 -9 -9 -16 -28 -19 -27 -20 -0 -0 -0 -85 -59 -35 -22 -10 -6 -0 -0 -1
-0 -0 -0 -0 -0 -0 -0 -0 -0 -0 -0 -0 -0 -0 -0 -0 -0 -0 -0 -39 -46 -9 -18 -35 -31 -27 -27 -18 -3 -6 -30 -0 -0 -0 -68 -56 -34 -23 -19 -28 -3 -0 -2
-0 -0 -0 -0 -0 -0 -0 -0 -0 -0 -0 -0 -0 -0 -0 -0 -0 -0 -0 -0 -0 -7 -0 -16 -7 -16 -4 -6 -11 -23 -19 -2 -0 -0 -0 -80 -41 -24 -13 -1 -4 -6 -6
-0 -0 -0 -0 -0 -0 -0 -0 -0 -0 -0 -0 -0 -0 -0 -0 -0 -0 -0 -0 -0 -0 -0 -1 -7 -7 -4 -4 -3 -10 -26 -34 -50 -0 -0 -99 -119 -38 -9 -0 -7 -15 -59
-0 -0 -0 -0 -0 -0 -0 -0 -0 -0 -0 -0 -0 -0 -0 -0 -0 -0 -0 -0 -0 -0 -0 -0 -0 -14 -8 -4 -8 -2 -11 -20 -41 -33 -0 -0 -0 -104 -29 -6 -0 -6 -25
-0 -0 -0 -0 -0 -0 -0 -0 -0 -0 -0 -0 -0 -0 -0 -0 -0 -0 -0 -0 -0 -0 -0 -0 -0 -47 -1 -10 -0 -3 -1 -5 -27 -31 -19 -54 -115 -117 -98 -22 -8 -1 -0
-0 -0 -0 -0 -0 -0 -0 -0 -0 -0 -0 -0 -0 -0 -0 -0 -0 -0 -0 -0 -0 -0 -0 -0 -0 -1 -12 -3 -0 -5 -36 -16 -1 -5 -16 -30 -50 -78 -66 -85 -17 -1 -1
-0 -0 -0 -0 -0 -0 -0 -0 -0 -0 -0 -0 -0 -0 -0 -0 -0 -0 -0 -0 -0 -0 -0 -0 -0 -0 -1 -0 -12 -17 -12 -21 -35 -74 -28 -19 -24 -42 -85 -81 -111 -46 -17
-0 -0 -0 -0 -0 -0 -0 -0 -0 -0 -0 -0 -0 -0 -0 -0 -0 -0 -0 -0 -0 -0 -0 -0 -0 -2 -0 -1 -3 -0 -0 -3 -36 -37 -43 -54 -48 -21 -19 -68 -74 -97 -72
-0 -0 -0 -0 -0 -0 -0 -0 -0 -0 -0 -0 -0 -0 -0 -0 -0 -0 -0 -0 -0 -0 -0 -0 -0 -0 -0 -0 -2 -5 -2 -0 -0 -0 -0 -0 -6 -37 -9 -10 -36 -59 -59
-0 -0 -0 -0 -0 -0 -0 -0 -0 -0 -0 -0 -0 -0 -0 -0 -0 -0 -0 -0 -0 -0 -0 -0 -0 -0 -2 -0 -6 -9 -2 -0 -0 -0 -0 -0 -0 -55 -3 -3 -6 -1 -27
-0 -0 -0 -0 -0 -0 -0 -0 -0 -0 -0 -0 -0 -0 -0 -0 -0 -0 -0 -0 -0 -0 -0 -0 -0 -0 -0 -0 -3 -5 -2 -1 -24 -0 -0 -0 -0 -3 -0 -7 -5 -9 -4
-0 -0 -0 -0 -0 -0 -0 -0 -0 -0 -0 -0 -0 -0 -0 -0 -0 -0 -0 -0 -0 -0 -0 -0 -0 -0 -0 -0 -0 -5 -7 -12 -0 -1 -10 -4 -6 -0 -0 -130 -10 -11 -22
-0 -0 -0 -0 -0 -0 -0 -0 -0 -0 -0 -0 -0 -0 -0 -0 -0 -0 -0 -0 -0 -0 -0 -0 -0 -0 -0 -0 -0 -0 -0 -1 -9 -5 -0 -0 -0 -0 -0 -0 -2 -1 -106
-0 -0 -0 -0 -0 -0 -0 -0 -0 -0 -0 -0 -0 -0 -0 -0 -0 -0 -0 -0 -0 -0 -0 -0 -0 -0 -0 -0 -0 -0 -0 -0 -1 -4 -0 -2 -4 -0 -0 -0 -0 -0 -0
Wind_Speed
16 16 17 15 15 17 20 21 20 20 21 20 21 20 19 19 18 18 19 19 18 18 17 16 14 12 10 12 15 15 18 16 15 14 13 13 12 12 10 8 9 8 10
18 20 22 19 19 18 18 20 22 22 22 22 24 22 21 19 19 17 17 17 16 18 19 17 15 14 11 13 nan 19 17 16 14 11 9 12 13 13 10 9 11 8 11
23 21 23 24 22 21 20 19 20 22 22 22 23 21 21 19 19 17 17 16 18 18 18 nan nan 14 12 13 16 nan nan 18 15 13 10 9 10 11 13 11 10 10 12
23 22 21 24 24 23 23 22 20 22 23 23 23 23 23 22 21 20 18 17 19 19 19 19 17 nan nan nan nan 21 nan nan nan nan nan 6 8 10 11 11 8 8 11
24 22 21 23 24 24 24 24 25 23 24 24 23 24 23 23 23 24 22 21 21 21 20 20 20 17 nan nan 17 20 nan nan nan nan 17 19 16 9 10 9 8 7 8
19 22 24 25 24 24 24 24 24 24 25 25 25 24 24 24 23 22 22 22 22 22 21 20 21 20 18 17 nan nan nan nan nan nan 20 23 21 12 13 10 11 9 8
21 nan nan 24 24 26 27 27 26 26 25 25 24 25 25 26 26 25 25 23 23 22 23 22 19 20 20 18 17 nan nan nan nan nan nan 23 22 18 17 16 15 11 9
nan nan nan nan 18 21 24 25 24 25 26 26 26 25 25 23 25 27 26 26 25 23 22 23 21 18 19 19 18 18 nan nan nan nan nan nan 24 25 20 19 16 15 17
nan nan nan nan nan nan nan nan 18 18 18 19 21 23 22 21 21 24 26 27 27 26 25 23 23 21 20 18 20 20 nan nan nan nan nan nan nan 24 20 20 19 19 22
nan nan nan nan nan nan nan nan nan nan nan nan nan nan nan 14 16 20 24 28 28 27 27 26 25 23 23 22 20 21 nan nan nan nan nan 25 25 22 17 19 19 19 20
nan nan nan nan nan nan nan nan nan nan nan nan nan nan nan nan nan 21 29 30 28 27 26 27 28 27 25 24 22 20 nan nan nan nan nan 27 26 22 20 19 18 19 20
nan nan nan nan nan nan nan nan nan nan nan nan nan nan nan nan nan nan nan nan 22 23 25 25 27 27 30 30 29 26 nan nan nan nan 31 30 28 23 21 19 17 21 24
nan nan nan nan nan nan nan nan nan nan nan nan nan nan nan nan nan nan nan nan nan nan 29 29 31 32 28 30 33 33 nan nan nan nan nan 31 29 28 25 23 23 25 26
nan nan nan nan nan nan nan nan nan nan nan nan nan nan nan nan nan nan nan nan nan nan nan 32 36 34 32 30 30 32 33 nan nan nan nan nan 30 30 27 27 27 28 24
nan nan nan nan nan nan nan nan nan nan nan nan nan nan nan nan nan nan nan nan nan nan nan nan nan 36 36 35 33 32 31 34 nan nan nan nan nan 27 28 28 29 28 29
nan nan nan nan nan nan nan nan nan nan nan nan nan nan nan nan nan nan nan nan nan nan nan nan nan nan 41 41 39 38 33 32 33 37 nan nan nan 30 32 27 24 26 25
nan nan nan nan nan nan nan nan nan nan nan nan nan nan nan nan nan nan nan nan nan nan nan nan nan nan nan nan 45 45 44 40 37 34 35 nan nan nan 32 42 31 24 23
nan nan nan nan nan nan nan nan nan nan nan nan nan nan nan nan nan nan nan nan nan nan nan nan nan nan nan nan nan nan nan 43 41 40 38 37 37 37 nan 37 25 22 24
nan nan nan nan nan nan nan nan nan nan nan nan nan nan nan nan nan nan nan nan nan nan nan nan nan nan nan nan nan nan nan nan nan nan 38 39 38 38 40 35 30 27 28
nan nan nan nan nan nan nan nan nan nan nan nan nan nan nan nan nan nan nan nan nan nan nan nan nan nan nan nan nan nan nan nan nan nan nan 36 36 36 36 39 38 36 31
nan nan nan nan nan nan nan nan nan nan nan nan nan nan nan nan nan nan nan nan nan nan nan nan nan nan nan nan nan nan nan nan nan nan nan nan nan 36 37 35 38 39 38
nan nan nan nan nan nan nan nan nan nan nan nan nan nan nan nan nan nan nan nan nan nan nan nan nan nan nan nan nan nan nan nan nan nan nan nan nan nan 39 36 37 36 37
nan nan nan nan nan nan nan nan nan nan nan nan nan nan nan nan nan nan nan nan nan nan nan nan nan nan nan nan nan nan nan nan nan nan nan nan nan nan nan 38 35 33 34
nan nan nan nan nan nan nan nan nan nan nan nan nan nan nan nan nan nan nan nan nan nan nan nan nan nan nan nan nan nan nan nan nan nan nan nan nan nan nan nan 41 35 35
nan nan nan nan nan nan nan nan nan nan nan nan nan nan nan nan nan nan nan nan nan nan nan nan nan nan nan nan nan nan nan nan nan nan nan nan nan nan nan nan nan nan nan
nan nan nan nan nan nan nan nan nan nan nan nan nan nan nan nan nan nan nan nan nan nan nan nan nan nan nan nan nan nan nan nan nan nan nan nan nan nan nan nan nan nan nan
Wind_Direction
252 248 242 241 245 245 241 242 238 231 245 243 248 251 253 253 251 250 248 249 246 246 245 249 261 259 250 213 195 197 200 209 215 214 203 201 197 206 231 261 259 228 241
257 251 249 243 243 247 252 248 238 242 241 243 248 249 250 253 251 247 248 252 252 250 251 247 253 250 236 215 nan 200 203 206 211 211 227 207 192 191 192 243 238 231 237
259 254 247 243 243 244 251 251 249 248 251 251 248 249 249 249 254 255 256 257 255 251 248 nan nan 249 240 222 215 nan nan 199 186 185 164 173 191 196 230 233 229 228 230
257 256 249 246 247 250 253 252 249 249 248 249 252 251 252 252 255 258 258 259 268 256 247 247 246 nan nan nan nan 212 nan nan nan nan nan 178 219 208 228 227 233 237 235
261 258 251 248 250 252 256 258 259 256 254 252 252 250 253 254 252 254 252 256 264 269 260 249 250 246 nan nan 228 219 nan nan nan nan 209 204 210 230 238 230 231 238 242
278 276 261 251 248 249 249 251 252 255 256 255 254 256 256 257 258 259 258 259 264 266 268 263 251 248 246 241 nan nan nan nan nan nan 224 210 210 247 245 238 239 237 252
245 nan nan 261 258 256 252 249 252 255 254 254 252 253 255 257 258 261 261 265 269 267 264 264 259 248 245 244 239 nan nan nan nan nan nan 229 218 233 244 243 247 252 248
nan nan nan nan 241 259 258 254 249 251 255 259 260 257 256 256 259 262 262 263 266 266 267 265 264 259 249 241 240 240 nan nan nan nan nan nan 236 226 242 242 233 246 253
nan nan nan nan nan nan nan nan 256 257 258 260 260 260 261 264 266 271 273 269 266 262 262 264 267 260 257 246 240 241 nan nan nan nan nan nan nan 231 234 242 238 236 249
nan nan nan nan nan nan nan nan nan nan nan nan nan nan nan 272 275 276 276 271 264 263 265 267 264 266 257 252 246 243 nan nan nan nan nan 244 250 239 232 247 242 240 244
nan nan nan nan nan nan nan nan nan nan nan nan nan nan nan nan nan 275 270 266 266 265 262 264 269 271 268 258 256 254 nan nan nan nan nan 260 255 248 236 233 244 248 247
nan nan nan nan nan nan nan nan nan nan nan nan nan nan nan nan nan nan nan nan 271 265 262 266 267 269 265 263 260 257 nan nan nan nan 242 255 253 241 237 231 238 250 252
nan nan nan nan nan nan nan nan nan nan nan nan nan nan nan nan nan nan nan nan nan nan 265 264 260 259 262 260 258 261 nan nan nan nan nan 251 249 242 235 227 261 253 258
nan nan nan nan nan nan nan nan nan nan nan nan nan nan nan nan nan nan nan nan nan nan nan 263 261 257 254 252 252 250 249 nan nan nan nan nan 250 245 245 243 257 254 254
nan nan nan nan nan nan nan nan nan nan nan nan nan nan nan nan nan nan nan nan nan nan nan nan nan 257 256 252 253 254 249 247 nan nan nan nan nan 247 246 251 257 258 249
nan nan nan nan nan nan nan nan nan nan nan nan nan nan nan nan nan nan nan nan nan nan nan nan nan nan 247 247 247 247 252 250 247 246 nan nan nan 254 255 253 257 268 270
nan nan nan nan nan nan nan nan nan nan nan nan nan nan nan nan nan nan nan nan nan nan nan nan nan nan nan nan 243 243 243 243 246 245 250 nan nan nan 254 260 244 253 257
nan nan nan nan nan nan nan nan nan nan nan nan nan nan nan nan nan nan nan nan nan nan nan nan nan nan nan nan nan nan nan 245 242 243 243 242 249 253 nan 263 267 259 266
nan nan nan nan nan nan nan nan nan nan nan nan nan nan nan nan nan nan nan nan nan nan nan nan nan nan nan nan nan nan nan nan nan nan 243 241 240 244 251 262 266 257 250
nan nan nan nan nan nan nan nan nan nan nan nan nan nan nan nan nan nan nan nan nan nan nan nan nan nan nan nan nan nan nan nan nan nan nan 244 240 239 243 248 250 254 261
nan nan nan nan nan nan nan nan nan nan nan nan nan nan nan nan nan nan nan nan nan nan nan nan nan nan nan nan nan nan nan nan nan nan nan nan nan 239 241 241 244 245 248
nan nan nan nan nan nan nan nan nan nan nan nan nan nan nan nan nan nan nan nan nan nan nan nan nan nan nan nan nan nan nan nan nan nan nan nan nan nan 237 240 243 246 248
nan nan nan nan nan nan nan nan nan nan nan nan nan nan nan nan nan nan nan nan nan nan nan nan nan nan nan nan nan nan nan nan nan nan nan nan nan nan nan 238 241 245 249
nan nan nan nan nan nan nan nan nan nan nan nan nan nan nan nan nan nan nan nan nan nan nan nan nan nan nan nan nan nan nan nan nan nan nan nan nan nan nan nan 241 245 250
nan nan nan nan nan nan nan nan nan nan nan nan nan nan nan nan nan nan nan nan nan nan nan nan nan nan nan nan nan nan nan nan nan nan nan nan nan nan nan nan nan nan nan
nan nan nan nan nan nan nan nan nan nan nan nan nan nan nan nan nan nan nan nan nan nan nan nan nan nan nan nan nan nan nan nan nan nan nan nan nan nan nan nan nan nan nan